Stampede Pass, WA
on Thursday, February 7, 2013

Thursday
Previous Day Next Day
Daily Summary
 ActualAverage (KEAT)Record (KEAT)
Temperature
Mean Temperature °F 30°F  
Max Temperature 30°F 37°F 55°F (1999)
Min Temperature 24°F 23°F 3°F (1969)
Degree Days
Heating Degree Days 38 35  
Month to date heating degree days 245  
Since 1 July heating degree days 4502  
Cooling Degree Days 0 0  
Month to date cooling degree days 0  
Year to date cooling degree days 0  
Moisture
Dew Point 25°F   
Average Humidity 88    
Maximum Humidity 93    
Minimum Humidity 74    
Precipitation
Precipitation 0.00 in 0.05 in 0.38 in (1996)
Month to date precipitation 0.37  
Year to date precipitation 2.24  
Snow
Snow 0.00 in 0.30 in in ()
Month to date snowfall 2.1  
Since 1 July snowfall 42.5  
Snow Depth in   
Wind
Wind Speed 6 mph   
Max Wind Speed 9 mph   
Max Gust Speed mph   
Visibility 4 miles   
Events Fog , Snow   

Key: T is trace of precipitation, MM is missing value
Source: NWS Daily Summary
Time(PST)TemperatureDew PointHumidity Pressure Visibility Wind DirectionWind SpeedGust SpeedPrecipitationEvents Conditions
12:56 AM 30.0°F 27.0°F 88% 29.86 in 6.0 miles Variable 5.8 mph - 0.00 in   Overcast
1:21 AM 30.2°F 26.6°F 86% 29.79 in 4.0 miles SE 8.1 mph - N/A   Overcast
1:56 AM 30.0°F 27.0°F 88% 29.86 in 5.0 miles ESE 8.1 mph - N/A   Overcast
3:19 AM 30.2°F 26.6°F 86% 29.80 in 1.2 miles WNW 5.8 mph - 0.00 in Snow Light Snow
3:24 AM 30.2°F 26.6°F 86% 29.79 in 0.5 miles NW 8.1 mph - 0.01 in Fog , Snow Snow
4:06 AM 28.4°F 26.6°F 93% 29.81 in 2.0 miles West 4.6 mph - 0.00 in Snow Light Snow
9:12 AM 26.6°F 24.8°F 93% 29.87 in 0.8 miles Variable 4.6 mph - 0.00 in   Overcast
9:30 AM 26.6°F 24.8°F 93% 29.87 in 8.0 miles West 9.2 mph - 0.00 in   Scattered Clouds
10:06 AM 26.6°F 24.8°F 93% 29.88 in 3.0 miles West 8.1 mph - N/A   Mostly Cloudy
10:16 AM 26.6°F 24.8°F 93% 29.88 in 8.0 miles Variable 6.9 mph - N/A   Mostly Cloudy
10:56 AM 28.0°F 24.1°F 85% 29.98 in 10.0 miles Variable 5.8 mph - N/A   Mostly Cloudy
1:56 PM 30.0°F 25.0°F 82% 29.98 in 10.0 miles Variable 3.5 mph - N/A   Mostly Cloudy
3:18 PM 28.4°F 21.2°F 74% 29.91 in 10.0 miles Variable 4.6 mph - N/A   Scattered Clouds
4:40 PM 28.4°F 24.8°F 86% 29.94 in 10.0 miles Calm Calm - N/A   Overcast
4:56 PM 28.0°F 24.1°F 85% 30.04 in 10.0 miles Calm Calm - N/A   Overcast
7:27 PM 26.6°F 23.0°F 86% 29.97 in 1.8 miles WSW 4.6 mph - N/A   Overcast
7:40 PM 26.6°F 23.0°F 86% 29.97 in 0.5 miles WSW 4.6 mph - N/A Fog Light Freezing Fog
7:49 PM 26.6°F 24.8°F 93% 29.97 in 0.2 miles WSW 4.6 mph - N/A Fog Light Freezing Fog
7:56 PM 26.1°F 24.1°F 92% 30.07 in 0.2 miles West 3.5 mph - N/A Fog Light Freezing Fog
8:56 PM 25.0°F 23.0°F 92% 30.09 in 0.8 miles Variable 4.6 mph - N/A   Mist
9:31 PM 24.8°F 23.0°F 93% 30.00 in 0.5 miles Variable 4.6 mph - N/A Fog Light Freezing Fog
10:56 PM 24.1°F 21.9°F 91% 30.12 in 0.8 miles Variable 4.6 mph - N/A   Mist
Moon Phase
Feb. 07 Feb. 10 Feb. 17 Feb. 25 Mar. 04
Sunrise:07:22 AM (PST) Moon Rise:05:12 AM (PST)2/7
Sunset:05:17 PM (PST) Moon Set:02:42 PM (PST)2/7

Copyright © 2014 The Weather Underground, Inc.